Wetterdaten: Donnerstag, 31.12.2015
Datum Zeit Auen-Temp. Temp gefhlt Luftfeuchte Luftdruck Regen Wind Richtung Richtung Taupunkt Windben
31.12.2015 00:00 -5,5 C -5,8 C 88 % 1022,7 hPa 0,0 mm 0,0 km/h (0 Bft) O-NO 67 -7,2 C 0,0 km/h (0 Bft)
31.12.2015 00:05 -5,8 C -6,0 C 88 % 1022,7 hPa 0,0 mm 0,0 km/h (0 Bft) O-NO 67 -7,5 C 0,0 km/h (0 Bft)
31.12.2015 00:10 -5,9 C -6,3 C 87 % 1022,7 hPa 0,0 mm 0,0 km/h (0 Bft) O-NO 67 -7,7 C 0,0 km/h (0 Bft)
31.12.2015 00:15 -5,9 C -6,3 C 87 % 1022,7 hPa 0,0 mm 0,0 km/h (0 Bft) NW 315 -7,7 C 0,0 km/h (0 Bft)
31.12.2015 00:20 -6,1 C -6,5 C 87 % 1022,7 hPa 0,0 mm 0,0 km/h (0 Bft) NW 315 -7,9 C 0,0 km/h (0 Bft)
31.12.2015 00:25 -5,9 C -6,4 C 87 % 1022,7 hPa 0,0 mm 0,0 km/h (0 Bft) NW 315 -7,7 C 0,0 km/h (0 Bft)
31.12.2015 00:30 -5,7 C -6,2 C 88 % 1022,7 hPa 0,0 mm 0,0 km/h (0 Bft) N-NW 337 -7,4 C 0,0 km/h (0 Bft)
31.12.2015 00:35 -6,1 C -6,5 C 87 % 1022,6 hPa 0,0 mm 0,0 km/h (0 Bft) NW 315 -7,9 C 0,0 km/h (0 Bft)
31.12.2015 00:40 -6,2 C -6,7 C 87 % 1022,6 hPa 0,0 mm 0,0 km/h (0 Bft) NW 315 -8,0 C 0,0 km/h (0 Bft)
31.12.2015 00:45 -6,1 C -6,6 C 87 % 1022,6 hPa 0,0 mm 0,0 km/h (0 Bft) NW 315 -7,9 C 0,0 km/h (0 Bft)
31.12.2015 00:50 -6,4 C -6,9 C 87 % 1022,6 hPa 0,0 mm 0,0 km/h (0 Bft) NW 315 -8,2 C 0,0 km/h (0 Bft)
31.12.2015 00:55 -6,3 C -6,8 C 87 % 1022,6 hPa 0,0 mm 0,0 km/h (0 Bft) NW 315 -8,1 C 0,0 km/h (0 Bft)
31.12.2015 00:58 -6,3 C -6,8 C 87 % 1022,6 hPa 0,0 mm 0,0 km/h (0 Bft) NW 315 -8,1 C 0,0 km/h (0 Bft)
31.12.2015 01:00 -6,3 C -6,8 C 87 % 1022,6 hPa 0,0 mm 0,0 km/h (0 Bft) NW 315 -8,1 C 0,0 km/h (0 Bft)
31.12.2015 01:05 -6,5 C -6,9 C 87 % 1022,6 hPa 0,0 mm 0,0 km/h (0 Bft) NW 315 -8,3 C 0,0 km/h (0 Bft)
31.12.2015 01:10 -6,4 C -6,9 C 87 % 1022,6 hPa 0,0 mm 0,0 km/h (0 Bft) NW 315 -8,2 C 0,0 km/h (0 Bft)
31.12.2015 01:15 -6,8 C -7,2 C 87 % 1022,2 hPa 0,0 mm 0,0 km/h (0 Bft) NW 315 -8,6 C 0,0 km/h (0 Bft)
31.12.2015 01:20 -6,9 C -7,3 C 87 % 1022,2 hPa 0,0 mm 0,0 km/h (0 Bft) NW 315 -8,7 C 0,0 km/h (0 Bft)
31.12.2015 01:25 -6,7 C -7,2 C 87 % 1022,2 hPa 0,0 mm 0,0 km/h (0 Bft) NW 315 -8,5 C 0,0 km/h (0 Bft)
31.12.2015 01:30 -6,9 C -7,3 C 87 % 1022,2 hPa 0,0 mm 0,0 km/h (0 Bft) NW 315 -8,7 C 0,0 km/h (0 Bft)
31.12.2015 01:35 -6,7 C -7,2 C 87 % 1022,2 hPa 0,0 mm 0,0 km/h (0 Bft) NW 315 -8,5 C 0,0 km/h (0 Bft)
31.12.2015 01:40 -6,3 C -6,9 C 87 % 1022,2 hPa 0,0 mm 0,0 km/h (0 Bft) NW 315 -8,1 C 0,0 km/h (0 Bft)
31.12.2015 01:45 -6,1 C -6,7 C 87 % 1022,2 hPa 0,0 mm 0,0 km/h (0 Bft) N-NW 337 -7,9 C 0,0 km/h (0 Bft)
31.12.2015 01:50 -6,2 C -6,7 C 87 % 1022,2 hPa 0,0 mm 0,0 km/h (0 Bft) N 360 -8,0 C 0,0 km/h (0 Bft)
31.12.2015 01:55 -5,9 C -6,4 C 88 % 1022,2 hPa 0,0 mm 0,0 km/h (0 Bft) N-NO 22 -7,6 C 0,0 km/h (0 Bft)
31.12.2015 02:00 -6,2 C -6,6 C 88 % 1022,2 hPa 0,0 mm 0,0 km/h (0 Bft) N 360 -7,9 C 0,0 km/h (0 Bft)
31.12.2015 02:05 -6,6 C -6,9 C 87 % 1022,2 hPa 0,0 mm 0,0 km/h (0 Bft) N 360 -8,4 C 0,0 km/h (0 Bft)
31.12.2015 02:10 -6,7 C -7,1 C 87 % 1022,2 hPa 0,0 mm 0,0 km/h (0 Bft) N 360 -8,5 C 0,0 km/h (0 Bft)
31.12.2015 02:15 -6,9 C -7,2 C 87 % 1022,2 hPa 0,0 mm 0,0 km/h (0 Bft) N 360 -8,7 C 0,0 km/h (0 Bft)
31.12.2015 02:20 -6,4 C -6,9 C 87 % 1022,2 hPa 0,0 mm 0,0 km/h (0 Bft) N 360 -8,2 C 0,0 km/h (0 Bft)
31.12.2015 02:25 -6,6 C -7,0 C 87 % 1022,2 hPa 0,0 mm 0,0 km/h (0 Bft) N 360 -8,4 C 0,0 km/h (0 Bft)
31.12.2015 02:30 -6,8 C -7,2 C 87 % 1022,2 hPa 0,0 mm 0,0 km/h (0 Bft) N 360 -8,6 C 0,0 km/h (0 Bft)
31.12.2015 02:35 -6,9 C -7,3 C 87 % 1022,3 hPa 0,0 mm 0,0 km/h (0 Bft) N 360 -8,7 C 0,0 km/h (0 Bft)
31.12.2015 02:40 -6,6 C -7,1 C 87 % 1022,3 hPa 0,0 mm 0,0 km/h (0 Bft) O-NO 67 -8,4 C 0,0 km/h (0 Bft)
31.12.2015 02:45 -6,6 C -7,0 C 87 % 1022,3 hPa 0,0 mm 0,0 km/h (0 Bft) O-NO 67 -8,4 C 0,0 km/h (0 Bft)
31.12.2015 02:50 -6,5 C -6,8 C 87 % 1022,3 hPa 0,0 mm 0,0 km/h (0 Bft) O-NO 67 -8,3 C 0,0 km/h (0 Bft)
31.12.2015 02:55 -6,7 C -7,0 C 87 % 1022,5 hPa 0,0 mm 0,0 km/h (0 Bft) N-NO 22 -8,5 C 0,0 km/h (0 Bft)
31.12.2015 03:00 -6,7 C -7,0 C 87 % 1022,5 hPa 0,0 mm 0,0 km/h (0 Bft) N-NO 22 -8,5 C 0,0 km/h (0 Bft)
31.12.2015 03:05 -6,6 C -6,9 C 87 % 1022,5 hPa 0,0 mm 0,0 km/h (0 Bft) NO 45 -8,4 C 0,0 km/h (0 Bft)
31.12.2015 03:10 -6,4 C -6,8 C 87 % 1022,5 hPa 0,0 mm 0,0 km/h (0 Bft) N-NO 22 -8,2 C 0,0 km/h (0 Bft)
31.12.2015 03:15 -6,2 C -6,6 C 87 % 1022,5 hPa 0,0 mm 0,0 km/h (0 Bft) N-NO 22 -8,0 C 0,0 km/h (0 Bft)
31.12.2015 03:20 -6,3 C -6,7 C 87 % 1022,5 hPa 0,0 mm 0,0 km/h (0 Bft) N-NO 22 -8,1 C 0,0 km/h (0 Bft)
31.12.2015 03:25 -6,0 C -6,5 C 88 % 1022,5 hPa 0,0 mm 0,0 km/h (0 Bft) N-NO 22 -7,7 C 0,0 km/h (0 Bft)
31.12.2015 03:30 -6,0 C -6,4 C 83 % 1022,5 hPa 0,0 mm 0,0 km/h (0 Bft) N-NO 22 -8,4 C 0,0 km/h (0 Bft)
31.12.2015 03:35 -6,0 C -6,4 C 83 % 1022,4 hPa 0,0 mm 0,0 km/h (0 Bft) N-NO 22 -8,4 C 0,0 km/h (0 Bft)
31.12.2015 03:40 -6,1 C -6,4 C 88 % 1022,4 hPa 0,0 mm 0,0 km/h (0 Bft) O-NO 67 -7,8 C 0,0 km/h (0 Bft)
31.12.2015 03:45 -6,0 C -6,3 C 83 % 1022,4 hPa 0,0 mm 0,0 km/h (0 Bft) O-NO 67 -8,4 C 0,0 km/h (0 Bft)
31.12.2015 03:50 -6,0 C -6,2 C 83 % 1022,4 hPa 0,0 mm 0,0 km/h (0 Bft) O-NO 67 -8,4 C 0,0 km/h (0 Bft)
31.12.2015 03:55 -6,0 C -6,3 C 83 % 1022,5 hPa 0,0 mm 0,0 km/h (0 Bft) NO 45 -8,4 C 0,0 km/h (0 Bft)
31.12.2015 04:00 -6,1 C -6,4 C 88 % 1022,5 hPa 0,0 mm 0,0 km/h (0 Bft) O-NO 67 -7,8 C 0,0 km/h (0 Bft)
31.12.2015 04:05 -6,3 C -6,6 C 88 % 1022,5 hPa 0,0 mm 0,0 km/h (0 Bft) O-NO 67 -8,0 C 0,0 km/h (0 Bft)
31.12.2015 04:10 -6,1 C -6,4 C 88 % 1022,5 hPa 0,0 mm 0,0 km/h (0 Bft) O-NO 67 -7,8 C 0,0 km/h (0 Bft)
31.12.2015 04:15 -6,0 C -6,3 C 83 % 1022,8 hPa 0,0 mm 0,0 km/h (0 Bft) O-NO 67 -8,4 C 0,0 km/h (0 Bft)
31.12.2015 04:20 -6,0 C -6,3 C 88 % 1022,8 hPa 0,0 mm 0,0 km/h (0 Bft) O-NO 67 -7,7 C 0,0 km/h (0 Bft)
31.12.2015 04:25 -6,0 C -6,3 C 83 % 1022,8 hPa 0,0 mm 0,0 km/h (0 Bft) NW 315 -8,4 C 0,0 km/h (0 Bft)
31.12.2015 04:30 -6,2 C -6,5 C 87 % 1022,8 hPa 0,0 mm 0,0 km/h (0 Bft) NW 315 -8,0 C 0,0 km/h (0 Bft)
31.12.2015 04:35 -6,0 C -6,4 C 87 % 1022,4 hPa 0,0 mm 0,0 km/h (0 Bft) NW 315 -7,8 C 0,0 km/h (0 Bft)
31.12.2015 04:40 -6,3 C -6,6 C 87 % 1022,4 hPa 0,0 mm 0,0 km/h (0 Bft) NW 315 -8,1 C 0,0 km/h (0 Bft)
31.12.2015 04:45 -6,2 C -6,5 C 87 % 1022,4 hPa 0,0 mm 0,0 km/h (0 Bft) NW 315 -8,0 C 0,0 km/h (0 Bft)
31.12.2015 04:50 -6,1 C -6,5 C 87 % 1022,4 hPa 0,0 mm 0,0 km/h (0 Bft) NW 315 -7,9 C 0,0 km/h (0 Bft)
31.12.2015 04:55 -6,2 C -6,6 C 87 % 1022,4 hPa 0,0 mm 0,0 km/h (0 Bft) NW 315 -8,0 C 0,0 km/h (0 Bft)
31.12.2015 05:00 -6,2 C -6,6 C 87 % 1022,4 hPa 0,0 mm 0,0 km/h (0 Bft) NW 315 -8,0 C 0,0 km/h (0 Bft)
31.12.2015 05:05 -6,3 C -6,6 C 87 % 1022,4 hPa 0,0 mm 0,0 km/h (0 Bft) NW 315 -8,1 C 0,0 km/h (0 Bft)
31.12.2015 05:10 -6,1 C -6,5 C 87 % 1022,4 hPa 0,0 mm 0,3 km/h (0 Bft) W 270 -7,9 C 3,6 km/h (1 Bft)
31.12.2015 05:15 -6,0 C -6,3 C 83 % 1022,4 hPa 0,0 mm 0,3 km/h (0 Bft) W 270 -8,4 C 0,0 km/h (0 Bft)
31.12.2015 05:20 -6,2 C -6,5 C 87 % 1022,4 hPa 0,0 mm 0,0 km/h (0 Bft) W 270 -8,0 C 0,0 km/h (0 Bft)
31.12.2015 05:25 -6,4 C -6,7 C 87 % 1022,4 hPa 0,0 mm 0,0 km/h (0 Bft) W 270 -8,2 C 0,0 km/h (0 Bft)
31.12.2015 05:30 -6,6 C -6,8 C 87 % 1022,4 hPa 0,0 mm 0,0 km/h (0 Bft) W 270 -8,4 C 0,0 km/h (0 Bft)
31.12.2015 05:35 -6,5 C -6,7 C 87 % 1022,5 hPa 0,0 mm 0,0 km/h (0 Bft) NW 315 -8,3 C 0,0 km/h (0 Bft)
31.12.2015 05:40 -6,2 C -6,5 C 87 % 1022,5 hPa 0,0 mm 0,0 km/h (0 Bft) NW 315 -8,0 C 0,0 km/h (0 Bft)
31.12.2015 05:45 -6,0 C -6,4 C 87 % 1022,5 hPa 0,0 mm 0,0 km/h (0 Bft) NW 315 -7,8 C 0,0 km/h (0 Bft)
31.12.2015 05:50 -6,2 C -6,5 C 87 % 1022,5 hPa 0,0 mm 0,0 km/h (0 Bft) NW 315 -8,0 C 0,0 km/h (0 Bft)
31.12.2015 05:55 -6,1 C -6,5 C 87 % 1022,3 hPa 0,0 mm 0,0 km/h (0 Bft) NW 315 -7,9 C 0,0 km/h (0 Bft)
31.12.2015 06:00 -6,0 C -6,0 C 83 % 1022,3 hPa 0,0 mm 0,0 km/h (0 Bft) W 270 -8,4 C 0,0 km/h (0 Bft)
31.12.2015 06:05 -6,0 C -6,1 C 83 % 1022,3 hPa 0,0 mm 0,0 km/h (0 Bft) W-SW 247 -8,4 C 0,0 km/h (0 Bft)
31.12.2015 06:10 -6,2 C -6,5 C 87 % 1022,3 hPa 0,0 mm 0,0 km/h (0 Bft) W-SW 247 -8,0 C 0,0 km/h (0 Bft)
31.12.2015 06:15 -6,3 C -6,6 C 87 % 1022,6 hPa 0,0 mm 0,0 km/h (0 Bft) W-SW 247 -8,1 C 0,0 km/h (0 Bft)
31.12.2015 06:20 -6,0 C -6,1 C 83 % 1022,6 hPa 0,0 mm 0,0 km/h (0 Bft) W-SW 247 -8,4 C 0,0 km/h (0 Bft)
31.12.2015 06:25 -6,0 C -6,2 C 83 % 1022,6 hPa 0,0 mm 0,0 km/h (0 Bft) W-SW 247 -8,4 C 0,0 km/h (0 Bft)
31.12.2015 06:30 -6,0 C -5,9 C 83 % 1022,6 hPa 0,0 mm 0,0 km/h (0 Bft) W-SW 247 -8,4 C 0,0 km/h (0 Bft)
31.12.2015 06:35 -6,0 C -6,2 C 83 % 1022,3 hPa 0,0 mm 0,0 km/h (0 Bft) W-SW 247 -8,4 C 0,0 km/h (0 Bft)
31.12.2015 06:40 -6,0 C -6,2 C 83 % 1022,3 hPa 0,0 mm 0,0 km/h (0 Bft) W 270 -8,4 C 4,1 km/h (1 Bft)
31.12.2015 06:45 -6,0 C -6,2 C 87 % 1022,3 hPa 0,0 mm 0,3 km/h (0 Bft) W 270 -7,8 C 0,0 km/h (0 Bft)
31.12.2015 06:50 -6,0 C -6,2 C 83 % 1022,3 hPa 0,0 mm 0,3 km/h (0 Bft) W-SW 247 -8,4 C 0,0 km/h (0 Bft)
31.12.2015 06:55 -6,0 C -6,1 C 83 % 1022,3 hPa 0,0 mm 0,0 km/h (0 Bft) W-SW 247 -8,4 C 0,0 km/h (0 Bft)
31.12.2015 06:59 -5,5 C -5,9 C 87 % 1022,3 hPa 0,0 mm 0,0 km/h (0 Bft) W-SW 247 -7,3 C 0,0 km/h (0 Bft)
31.12.2015 07:00 -5,5 C -5,9 C 87 % 1022,3 hPa 0,0 mm 0,0 km/h (0 Bft) W-SW 247 -7,3 C 0,0 km/h (0 Bft)
31.12.2015 07:05 -4,7 C -5,3 C 88 % 1022,3 hPa 0,0 mm 0,0 km/h (0 Bft) SO 135 -6,4 C 0,0 km/h (0 Bft)
31.12.2015 07:10 -4,9 C -5,3 C 88 % 1022,3 hPa 0,0 mm 0,0 km/h (0 Bft) SO 135 -6,6 C 0,0 km/h (0 Bft)
31.12.2015 07:15 -5,3 C -5,5 C 88 % 1022,5 hPa 0,0 mm 0,0 km/h (0 Bft) SO 135 -7,0 C 0,0 km/h (0 Bft)
31.12.2015 07:20 -5,3 C -5,5 C 88 % 1022,5 hPa 0,0 mm 0,0 km/h (0 Bft) S-SO 157 -7,0 C 0,0 km/h (0 Bft)
31.12.2015 07:25 -5,3 C -5,5 C 88 % 1022,5 hPa 0,0 mm 0,0 km/h (0 Bft) W-SW 247 -7,0 C 0,0 km/h (0 Bft)
31.12.2015 07:30 -5,4 C -5,5 C 88 % 1022,5 hPa 0,0 mm 0,0 km/h (0 Bft) W 270 -7,1 C 0,0 km/h (0 Bft)
31.12.2015 07:35 -5,3 C -5,4 C 88 % 1022,7 hPa 0,0 mm 0,0 km/h (0 Bft) W 270 -7,0 C 0,0 km/h (0 Bft)
31.12.2015 07:40 -5,0 C -5,2 C 88 % 1022,7 hPa 0,0 mm 1,6 km/h (1 Bft) W 270 -6,7 C 13,2 km/h (3 Bft)
31.12.2015 07:45 -3,3 C -4,2 C 89 % 1022,7 hPa 0,0 mm 4,9 km/h (1 Bft) W-NW 292 -4,8 C 8,8 km/h (2 Bft)
31.12.2015 07:50 -2,3 C -3,7 C 89 % 1022,7 hPa 0,0 mm 9,8 km/h (2 Bft) SW 225 -3,9 C 19,2 km/h (3 Bft)
31.12.2015 07:55 -2,1 C -3,3 C 89 % 1023,7 hPa 0,0 mm 9,1 km/h (2 Bft) W-SW 247 -3,7 C 7,3 km/h (2 Bft)
31.12.2015 08:00 -2,2 C -2,7 C 89 % 1023,7 hPa 0,0 mm 4,7 km/h (1 Bft) O-NO 67 -3,8 C 0,0 km/h (0 Bft)
31.12.2015 08:05 -1,9 C -2,3 C 89 % 1023,7 hPa 0,0 mm 2,3 km/h (1 Bft) O-NO 67 -3,5 C 3,6 km/h (1 Bft)
31.12.2015 08:10 -1,6 C -2,1 C 89 % 1023,7 hPa 0,0 mm 1,3 km/h (1 Bft) SO 135 -3,2 C 0,0 km/h (0 Bft)
31.12.2015 08:15 -1,7 C -2,2 C 88 % 1023,8 hPa 0,0 mm 1,0 km/h (0 Bft) SW 225 -3,4 C 4,9 km/h (1 Bft)
31.12.2015 08:20 -1,6 C -2,1 C 87 % 1023,8 hPa 0,0 mm 0,3 km/h (0 Bft) SO 135 -3,5 C 0,0 km/h (0 Bft)
31.12.2015 08:25 -1,9 C -2,2 C 87 % 1023,8 hPa 0,0 mm 0,5 km/h (0 Bft) NW 315 -3,8 C 3,6 km/h (1 Bft)
31.12.2015 08:30 -2,1 C -2,4 C 86 % 1023,8 hPa 0,0 mm 0,5 km/h (0 Bft) W-NW 292 -4,1 C 0,0 km/h (0 Bft)
31.12.2015 08:35 -1,7 C -2,2 C 86 % 1024,1 hPa 0,0 mm 0,5 km/h (0 Bft) W-SW 247 -3,7 C 0,0 km/h (0 Bft)
31.12.2015 08:40 -2,1 C -2,4 C 85 % 1024,1 hPa 0,0 mm 0,3 km/h (0 Bft) O-NO 67 -4,3 C 2,6 km/h (1 Bft)
31.12.2015 08:45 -1,8 C -2,3 C 85 % 1024,1 hPa 0,0 mm 0,3 km/h (0 Bft) O-SO 112 -4,0 C 0,0 km/h (0 Bft)
31.12.2015 08:50 -0,5 C -1,3 C 82 % 1024,1 hPa 0,0 mm 0,8 km/h (0 Bft) O-SO 112 -3,2 C 0,0 km/h (0 Bft)
31.12.2015 08:55 -1,1 C -1,7 C 81 % 1024,3 hPa 0,0 mm 0,5 km/h (0 Bft) O-SO 112 -3,9 C 0,0 km/h (0 Bft)
31.12.2015 09:00 -0,9 C -1,5 C 81 % 1024,3 hPa 0,0 mm 0,0 km/h (0 Bft) SO 135 -3,7 C 0,0 km/h (0 Bft)
31.12.2015 09:05 -1,1 C -1,6 C 81 % 1024,3 hPa 0,0 mm 0,0 km/h (0 Bft) SO 135 -3,9 C 3,1 km/h (1 Bft)
31.12.2015 09:10 -0,6 C -1,2 C 80 % 1024,3 hPa 0,0 mm 0,3 km/h (0 Bft) S-SO 157 -3,6 C 0,0 km/h (0 Bft)
31.12.2015 09:15 -1,1 C -1,4 C 80 % 1024,4 hPa 0,0 mm 0,3 km/h (0 Bft) NW 315 -4,1 C 0,0 km/h (0 Bft)
31.12.2015 09:20 -1,2 C -1,5 C 80 % 1024,4 hPa 0,0 mm 0,5 km/h (0 Bft) N-NW 337 -4,2 C 0,0 km/h (0 Bft)
31.12.2015 09:25 -0,1 C -0,7 C 79 % 1024,4 hPa 0,0 mm 0,5 km/h (0 Bft) O-SO 112 -3,3 C 3,1 km/h (1 Bft)
31.12.2015 09:30 -0,2 C -0,5 C 79 % 1024,4 hPa 0,0 mm 0,8 km/h (0 Bft) SW 225 -3,4 C 0,0 km/h (0 Bft)
31.12.2015 09:35 0,0 C -0,2 C 79 % 1024,7 hPa 0,0 mm 0,5 km/h (0 Bft) SW 225 -3,2 C 0,0 km/h (0 Bft)
31.12.2015 09:40 0,0 C 0,0 C 79 % 1024,7 hPa 0,0 mm 0,0 km/h (0 Bft) S-SO 157 -3,2 C 0,0 km/h (0 Bft)
31.12.2015 09:45 0,0 C 0,6 C 79 % 1024,7 hPa 0,0 mm 0,0 km/h (0 Bft) S-SO 157 -3,2 C 0,0 km/h (0 Bft)
31.12.2015 09:50 0,0 C 0,9 C 79 % 1024,7 hPa 0,0 mm 0,0 km/h (0 Bft) S-SO 157 -3,2 C 0,0 km/h (0 Bft)
31.12.2015 09:55 0,0 C 1,0 C 79 % 1024,8 hPa 0,0 mm 0,0 km/h (0 Bft) S-SO 157 -3,2 C 0,0 km/h (0 Bft)
31.12.2015 10:00 0,0 C 1,2 C 79 % 1024,8 hPa 0,0 mm 0,0 km/h (0 Bft) S-SO 157 -3,2 C 0,0 km/h (0 Bft)
31.12.2015 10:05 1,2 C 1,4 C 78 % 1024,8 hPa 0,0 mm 0,0 km/h (0 Bft) S-SO 157 -2,2 C 0,0 km/h (0 Bft)
31.12.2015 10:10 1,2 C 1,8 C 78 % 1024,8 hPa 0,0 mm 0,0 km/h (0 Bft) O-SO 112 -2,2 C 0,0 km/h (0 Bft)
31.12.2015 10:15 1,2 C 2,4 C 78 % 1025,0 hPa 0,0 mm 0,0 km/h (0 Bft) SO 135 -2,2 C 0,0 km/h (0 Bft)
31.12.2015 10:20 1,2 C 3,6 C 78 % 1025,0 hPa 0,0 mm 0,3 km/h (0 Bft) SW 225 -2,2 C 0,0 km/h (0 Bft)
31.12.2015 10:25 1,2 C 4,3 C 78 % 1025,0 hPa 0,0 mm 0,3 km/h (0 Bft) SW 225 -2,2 C 0,0 km/h (0 Bft)
31.12.2015 10:30 1,2 C 5,2 C 78 % 1025,0 hPa 0,0 mm 0,5 km/h (0 Bft) SO 135 -2,2 C 0,0 km/h (0 Bft)
31.12.2015 10:35 1,2 C 5,8 C 78 % 1025,3 hPa 0,0 mm 0,5 km/h (0 Bft) W-SW 247 -2,2 C 0,0 km/h (0 Bft)
31.12.2015 10:40 1,2 C 6,2 C 78 % 1025,3 hPa 0,0 mm 0,3 km/h (0 Bft) O 90 -2,2 C 0,0 km/h (0 Bft)
31.12.2015 10:45 1,2 C 6,4 C 78 % 1025,3 hPa 0,0 mm 0,0 km/h (0 Bft) SO 135 -2,2 C 0,0 km/h (0 Bft)
31.12.2015 10:50 1,2 C 6,8 C 78 % 1025,3 hPa 0,0 mm 1,6 km/h (1 Bft) SW 225 -2,2 C 2,8 km/h (1 Bft)
31.12.2015 10:55 1,2 C 7,1 C 78 % 1025,4 hPa 0,0 mm 1,6 km/h (1 Bft) NW 315 -2,2 C 3,4 km/h (1 Bft)
31.12.2015 11:00 1,2 C 7,6 C 78 % 1025,4 hPa 0,0 mm 2,1 km/h (1 Bft) W 270 -2,2 C 6,7 km/h (2 Bft)
31.12.2015 11:05 1,2 C 7,9 C 78 % 1025,4 hPa 0,0 mm 4,1 km/h (1 Bft) W-NW 292 -2,2 C 10,6 km/h (2 Bft)
31.12.2015 11:10 1,2 C 8,1 C 78 % 1025,4 hPa 0,0 mm 5,4 km/h (1 Bft) NW 315 -2,2 C 10,6 km/h (2 Bft)
31.12.2015 11:15 1,2 C 8,2 C 78 % 1025,3 hPa 0,0 mm 5,2 km/h (1 Bft) NW 315 -2,2 C 3,4 km/h (1 Bft)
31.12.2015 11:20 1,2 C 7,5 C 78 % 1025,3 hPa 0,0 mm 9,1 km/h (2 Bft) W 270 -2,2 C 20,5 km/h (4 Bft)
31.12.2015 11:25 1,2 C 7,1 C 78 % 1025,3 hPa 0,0 mm 10,9 km/h (2 Bft) W-NW 292 -2,2 C 7,3 km/h (2 Bft)
31.12.2015 11:30 1,2 C 7,2 C 78 % 1025,3 hPa 0,0 mm 9,8 km/h (2 Bft) SW 225 -2,2 C 10,4 km/h (2 Bft)
31.12.2015 11:35 1,2 C 7,8 C 78 % 1025,6 hPa 0,0 mm 6,7 km/h (2 Bft) NW 315 -2,2 C 6,7 km/h (2 Bft)
31.12.2015 11:40 1,2 C 7,9 C 78 % 1025,6 hPa 0,0 mm 5,4 km/h (1 Bft) N 360 -2,2 C 16,1 km/h (3 Bft)
31.12.2015 11:45 1,2 C 7,9 C 78 % 1025,6 hPa 0,0 mm 5,7 km/h (1 Bft) W-NW 292 -2,2 C 7,5 km/h (2 Bft)
31.12.2015 11:50 1,2 C 7,7 C 78 % 1025,6 hPa 0,0 mm 6,7 km/h (2 Bft) S-SW 202 -2,2 C 5,2 km/h (1 Bft)
31.12.2015 11:55 1,2 C 7,9 C 78 % 1025,6 hPa 0,0 mm 5,7 km/h (1 Bft) W-SW 247 -2,2 C 0,0 km/h (0 Bft)
31.12.2015 12:00 1,2 C 8,0 C 78 % 1025,6 hPa 0,0 mm 3,9 km/h (1 Bft) W 270 -2,2 C 9,6 km/h (2 Bft)
31.12.2015 12:05 1,2 C 8,0 C 78 % 1025,6 hPa 0,0 mm 3,4 km/h (1 Bft) W 270 -2,2 C 3,6 km/h (1 Bft)
31.12.2015 12:10 1,2 C 7,8 C 78 % 1025,6 hPa 0,0 mm 5,2 km/h (1 Bft) SW 225 -2,2 C 3,6 km/h (1 Bft)
31.12.2015 12:15 1,2 C 7,6 C 78 % 1025,8 hPa 0,0 mm 5,4 km/h (1 Bft) W-SW 247 -2,2 C 8,5 km/h (2 Bft)
31.12.2015 12:20 1,2 C 7,2 C 78 % 1025,8 hPa 0,0 mm 6,7 km/h (2 Bft) S-SW 202 -2,2 C 12,9 km/h (3 Bft)
31.12.2015 12:25 1,2 C 6,9 C 78 % 1025,8 hPa 0,0 mm 7,3 km/h (2 Bft) W-SW 247 -2,2 C 0,0 km/h (0 Bft)
31.12.2015 12:30 1,2 C 6,7 C 78 % 1025,8 hPa 0,0 mm 7,8 km/h (2 Bft) W-NW 292 -2,2 C 23,6 km/h (4 Bft)
31.12.2015 12:35 1,2 C 6,6 C 78 % 1025,8 hPa 0,0 mm 7,0 km/h (2 Bft) S 180 -2,2 C 10,4 km/h (2 Bft)
31.12.2015 12:40 1,2 C 6,4 C 78 % 1025,8 hPa 0,0 mm 8,3 km/h (2 Bft) W-SW 247 -2,2 C 3,1 km/h (1 Bft)
31.12.2015 12:45 1,2 C 6,4 C 78 % 1025,8 hPa 0,0 mm 7,0 km/h (2 Bft) W-SW 247 -2,2 C 10,1 km/h (2 Bft)
31.12.2015 12:50 1,2 C 6,4 C 78 % 1025,8 hPa 0,0 mm 5,4 km/h (1 Bft) W-SW 247 -2,2 C 7,8 km/h (2 Bft)
31.12.2015 12:55 1,2 C 6,0 C 78 % 1025,7 hPa 0,0 mm 7,8 km/h (2 Bft) W-SW 247 -2,2 C 12,4 km/h (3 Bft)
31.12.2015 13:00 0,0 C 5,7 C 73 % 1025,7 hPa 0,0 mm 8,5 km/h (2 Bft) W-NW 292 -4,2 C 10,9 km/h (2 Bft)
31.12.2015 13:05 0,0 C 5,5 C 76 % 1025,7 hPa 0,0 mm 9,1 km/h (2 Bft) W-NW 292 -3,7 C 7,0 km/h (2 Bft)
31.12.2015 13:10 0,0 C 5,1 C 77 % 1025,7 hPa 0,0 mm 8,8 km/h (2 Bft) W-SW 247 -3,5 C 4,4 km/h (1 Bft)
31.12.2015 13:15 0,0 C 5,2 C 77 % 1025,7 hPa 0,0 mm 6,2 km/h (2 Bft) W-SW 247 -3,5 C 5,2 km/h (1 Bft)
31.12.2015 13:20 5,3 C 5,2 C 78 % 1025,7 hPa 0,0 mm 4,1 km/h (1 Bft) W 270 1,8 C 7,8 km/h (2 Bft)
31.12.2015 13:25 5,2 C 5,1 C 79 % 1025,7 hPa 0,7 mm 3,9 km/h (1 Bft) W 270 1,9 C 7,8 km/h (2 Bft)
31.12.2015 13:30 5,1 C 5,0 C 79 % 1025,7 hPa 0,0 mm 3,6 km/h (1 Bft) N 360 1,8 C 2,8 km/h (1 Bft)
31.12.2015 13:35 5,1 C 5,0 C 79 % 1025,8 hPa 0,0 mm 2,1 km/h (1 Bft) W-SW 247 1,8 C 0,0 km/h (0 Bft)
31.12.2015 13:40 5,0 C 4,9 C 80 % 1025,8 hPa 0,0 mm 1,0 km/h (0 Bft) W-SW 247 1,8 C 7,3 km/h (2 Bft)
31.12.2015 13:45 5,0 C 4,9 C 81 % 1025,8 hPa 0,7 mm 3,1 km/h (1 Bft) W 270 2,0 C 4,4 km/h (1 Bft)
31.12.2015 13:50 4,9 C 4,8 C 82 % 1025,8 hPa 0,0 mm 4,9 km/h (1 Bft) NW 315 2,1 C 6,2 km/h (2 Bft)
31.12.2015 13:55 4,9 C 4,8 C 82 % 1025,9 hPa 0,0 mm 3,4 km/h (1 Bft) W-SW 247 2,1 C 2,6 km/h (1 Bft)
31.12.2015 14:00 4,8 C 4,7 C 83 % 1025,9 hPa 0,0 mm 2,1 km/h (1 Bft) SW 225 2,2 C 3,9 km/h (1 Bft)
31.12.2015 14:05 4,8 C 4,7 C 83 % 1025,9 hPa 0,0 mm 1,6 km/h (1 Bft) W-SW 247 2,2 C 3,1 km/h (1 Bft)
31.12.2015 14:10 4,7 C 4,7 C 83 % 1025,9 hPa 0,0 mm 2,3 km/h (1 Bft) W-SW 247 2,1 C 3,6 km/h (1 Bft)
31.12.2015 14:15 4,7 C 4,7 C 83 % 1026,0 hPa 0,7 mm 1,8 km/h (1 Bft) SW 225 2,1 C 3,1 km/h (1 Bft)
31.12.2015 14:20 4,7 C 4,7 C 83 % 1026,0 hPa 0,0 mm 1,0 km/h (0 Bft) SW 225 2,1 C 3,4 km/h (1 Bft)
31.12.2015 14:25 4,7 C 4,7 C 84 % 1026,0 hPa 0,0 mm 1,3 km/h (1 Bft) SW 225 2,2 C 4,7 km/h (1 Bft)
31.12.2015 14:30 4,8 C 4,7 C 84 % 1026,0 hPa 0,0 mm 2,3 km/h (1 Bft) S-SW 202 2,3 C 0,0 km/h (0 Bft)
31.12.2015 14:35 4,7 C 4,7 C 84 % 1026,0 hPa 0,0 mm 2,1 km/h (1 Bft) W-SW 247 2,2 C 0,0 km/h (0 Bft)
31.12.2015 14:40 4,7 C 4,7 C 85 % 1026,0 hPa 0,0 mm 0,8 km/h (0 Bft) S-SO 157 2,4 C 0,0 km/h (0 Bft)
31.12.2015 14:45 4,7 C 4,7 C 85 % 1026,0 hPa 0,0 mm 0,5 km/h (0 Bft) S 180 2,4 C 2,8 km/h (1 Bft)
31.12.2015 14:50 4,7 C 4,7 C 86 % 1026,0 hPa 0,0 mm 0,5 km/h (0 Bft) W-SW 247 2,6 C 0,0 km/h (0 Bft)
31.12.2015 14:55 4,6 C 4,6 C 86 % 1025,9 hPa 0,7 mm 0,8 km/h (0 Bft) S-SW 202 2,5 C 3,9 km/h (1 Bft)
31.12.2015 15:00 4,5 C 4,5 C 86 % 1025,9 hPa 0,0 mm 0,3 km/h (0 Bft) S 180 2,4 C 0,0 km/h (0 Bft)
31.12.2015 15:05 4,5 C 4,5 C 86 % 1025,9 hPa 0,0 mm 0,3 km/h (0 Bft) O-NO 67 2,4 C 0,0 km/h (0 Bft)
31.12.2015 15:10 4,4 C 4,4 C 86 % 1025,9 hPa 0,0 mm 0,0 km/h (0 Bft) O-NO 67 2,3 C 0,0 km/h (0 Bft)
31.12.2015 15:15 4,4 C 4,4 C 86 % 1026,0 hPa 0,0 mm 0,0 km/h (0 Bft) O 90 2,3 C 0,0 km/h (0 Bft)
31.12.2015 15:20 4,4 C 4,4 C 87 % 1026,0 hPa 0,0 mm 0,0 km/h (0 Bft) N-NO 22 2,4 C 0,0 km/h (0 Bft)
31.12.2015 15:25 4,2 C 4,3 C 87 % 1026,0 hPa 0,0 mm 0,0 km/h (0 Bft) NO 45 2,2 C 0,0 km/h (0 Bft)
31.12.2015 15:30 4,0 C 4,1 C 87 % 1026,0 hPa 0,0 mm 0,0 km/h (0 Bft) O-NO 67 2,0 C 0,0 km/h (0 Bft)
31.12.2015 15:35 3,9 C 4,0 C 88 % 1025,9 hPa 0,0 mm 0,3 km/h (0 Bft) N-NO 22 2,1 C 0,0 km/h (0 Bft)
31.12.2015 15:40 4,1 C 4,1 C 88 % 1025,9 hPa 0,0 mm 0,0 km/h (0 Bft) O-NO 67 2,3 C 0,0 km/h (0 Bft)
31.12.2015 15:45 4,1 C 4,1 C 88 % 1025,9 hPa 0,0 mm 0,0 km/h (0 Bft) O-NO 67 2,3 C 0,0 km/h (0 Bft)
31.12.2015 15:50 4,1 C 4,1 C 88 % 1025,9 hPa 0,0 mm 0,0 km/h (0 Bft) O-NO 67 2,3 C 0,0 km/h (0 Bft)
31.12.2015 15:55 4,0 C 4,0 C 88 % 1026,2 hPa 0,0 mm 0,0 km/h (0 Bft) O-NO 67 2,2 C 0,0 km/h (0 Bft)
31.12.2015 16:00 4,1 C 4,1 C 88 % 1026,2 hPa 0,7 mm 0,0 km/h (0 Bft) O 90 2,3 C 0,0 km/h (0 Bft)
31.12.2015 16:05 4,1 C 4,1 C 88 % 1026,2 hPa 0,0 mm 0,0 km/h (0 Bft) O-SO 112 2,3 C 0,0 km/h (0 Bft)
31.12.2015 16:10 4,0 C 4,0 C 88 % 1026,2 hPa 0,0 mm 0,0 km/h (0 Bft) O-SO 112 2,2 C 0,0 km/h (0 Bft)
31.12.2015 16:15 3,7 C 3,9 C 89 % 1026,1 hPa 0,0 mm 0,0 km/h (0 Bft) O 90 2,1 C 0,0 km/h (0 Bft)
31.12.2015 16:20 3,6 C 3,8 C 88 % 1026,1 hPa 0,0 mm 0,0 km/h (0 Bft) O 90 1,8 C 0,0 km/h (0 Bft)
31.12.2015 16:25 3,6 C 3,7 C 88 % 1026,1 hPa 0,0 mm 0,0 km/h (0 Bft) O 90 1,8 C 0,0 km/h (0 Bft)
31.12.2015 16:30 3,8 C 3,8 C 89 % 1026,1 hPa 0,0 mm 0,0 km/h (0 Bft) SO 135 2,2 C 0,0 km/h (0 Bft)
31.12.2015 16:35 4,0 C 3,9 C 89 % 1026,3 hPa 0,0 mm 0,0 km/h (0 Bft) S-SW 202 2,4 C 0,0 km/h (0 Bft)
31.12.2015 16:40 4,1 C 4,0 C 89 % 1026,3 hPa 0,0 mm 0,5 km/h (0 Bft) SW 225 2,5 C 4,7 km/h (1 Bft)
31.12.2015 16:45 4,0 C 4,0 C 89 % 1026,3 hPa 0,0 mm 0,8 km/h (0 Bft) S 180 2,4 C 0,0 km/h (0 Bft)
31.12.2015 16:50 3,8 C 3,9 C 90 % 1026,3 hPa 0,0 mm 0,8 km/h (0 Bft) O-SO 112 2,3 C 0,0 km/h (0 Bft)
31.12.2015 16:55 3,8 C 3,8 C 90 % 1026,2 hPa 0,0 mm 0,0 km/h (0 Bft) O-SO 112 2,3 C 0,0 km/h (0 Bft)
31.12.2015 17:00 3,6 C 3,8 C 90 % 1026,2 hPa 0,0 mm 0,0 km/h (0 Bft) W-SW 247 2,1 C 0,0 km/h (0 Bft)
31.12.2015 17:05 3,5 C 3,7 C 90 % 1026,2 hPa 0,0 mm 0,0 km/h (0 Bft) W 270 2,0 C 0,0 km/h (0 Bft)
31.12.2015 17:10 3,4 C 3,5 C 90 % 1026,2 hPa 0,0 mm 0,0 km/h (0 Bft) W 270 1,9 C 0,0 km/h (0 Bft)
31.12.2015 17:15 3,4 C 3,4 C 90 % 1026,3 hPa 0,7 mm 0,0 km/h (0 Bft) W 270 1,9 C 0,0 km/h (0 Bft)
31.12.2015 17:20 3,5 C 3,4 C 90 % 1026,3 hPa 0,0 mm 0,0 km/h (0 Bft) W 270 2,0 C 0,0 km/h (0 Bft)
31.12.2015 17:25 3,3 C 3,3 C 90 % 1026,3 hPa 0,0 mm 0,0 km/h (0 Bft) W 270 1,8 C 0,0 km/h (0 Bft)
31.12.2015 17:30 3,5 C 3,5 C 90 % 1026,3 hPa 0,0 mm 0,0 km/h (0 Bft) S 180 2,0 C 0,0 km/h (0 Bft)
31.12.2015 17:35 3,3 C 3,3 C 90 % 1026,3 hPa 0,0 mm 0,0 km/h (0 Bft) S-SO 157 1,8 C 0,0 km/h (0 Bft)
31.12.2015 17:40 3,8 C 3,7 C 90 % 1026,3 hPa 0,0 mm 0,3 km/h (0 Bft) S 180 2,3 C 3,4 km/h (1 Bft)
31.12.2015 17:45 3,9 C 3,8 C 90 % 1026,3 hPa 0,0 mm 0,5 km/h (0 Bft) SW 225 2,4 C 4,7 km/h (1 Bft)
31.12.2015 17:50 4,0 C 3,9 C 91 % 1026,3 hPa 0,0 mm 0,5 km/h (0 Bft) S-SO 157 2,7 C 0,0 km/h (0 Bft)
31.12.2015 17:55 3,9 C 3,9 C 91 % 1026,2 hPa 0,0 mm 0,3 km/h (0 Bft) S 180 2,6 C 0,0 km/h (0 Bft)
31.12.2015 18:00 3,8 C 3,8 C 91 % 1026,2 hPa 0,0 mm 0,0 km/h (0 Bft) S-SO 157 2,5 C 0,0 km/h (0 Bft)
31.12.2015 18:05 3,8 C 3,8 C 91 % 1026,2 hPa 0,0 mm 0,0 km/h (0 Bft) SW 225 2,5 C 0,0 km/h (0 Bft)
31.12.2015 18:10 3,5 C 3,5 C 91 % 1026,2 hPa 0,0 mm 0,0 km/h (0 Bft) S-SO 157 2,2 C 0,0 km/h (0 Bft)
31.12.2015 18:15 3,2 C 3,4 C 91 % 1026,4 hPa 0,0 mm 0,0 km/h (0 Bft) S-SO 157 1,9 C 0,0 km/h (0 Bft)
31.12.2015 18:20 2,9 C 3,2 C 92 % 1026,4 hPa 0,0 mm 0,0 km/h (0 Bft) W-SW 247 1,7 C 0,0 km/h (0 Bft)
31.12.2015 18:25 2,9 C 3,0 C 92 % 1026,4 hPa 0,0 mm 0,0 km/h (0 Bft) W-SW 247 1,7 C 0,0 km/h (0 Bft)
31.12.2015 18:30 3,0 C 2,9 C 91 % 1026,4 hPa 0,0 mm 0,0 km/h (0 Bft) W-SW 247 1,7 C 0,0 km/h (0 Bft)
31.12.2015 18:35 3,1 C 3,0 C 91 % 1026,3 hPa 0,0 mm 0,0 km/h (0 Bft) W-SW 247 1,8 C 0,0 km/h (0 Bft)
31.12.2015 18:40 3,0 C 2,9 C 91 % 1026,3 hPa 0,0 mm 0,0 km/h (0 Bft) S 180 1,7 C 0,0 km/h (0 Bft)
31.12.2015 18:45 3,0 C 3,0 C 91 % 1026,3 hPa 0,0 mm 0,0 km/h (0 Bft) S-SO 157 1,7 C 0,0 km/h (0 Bft)
31.12.2015 18:50 2,7 C 2,9 C 92 % 1026,3 hPa 0,0 mm 0,5 km/h (0 Bft) W-NW 292 1,5 C 3,9 km/h (1 Bft)
31.12.2015 18:55 2,6 C 2,7 C 92 % 1026,3 hPa 0,0 mm 0,5 km/h (0 Bft) W 270 1,4 C 0,0 km/h (0 Bft)
31.12.2015 19:00 2,9 C 2,8 C 92 % 1026,3 hPa 0,0 mm 0,3 km/h (0 Bft) W 270 1,7 C 0,0 km/h (0 Bft)
31.12.2015 19:05 3,0 C 3,0 C 86 % 1026,3 hPa 0,0 mm 0,0 km/h (0 Bft) W 270 0,9 C 0,0 km/h (0 Bft)
31.12.2015 19:10 3,0 C 3,0 C 86 % 1026,3 hPa 0,0 mm 0,0 km/h (0 Bft) W-SW 247 0,9 C 0,0 km/h (0 Bft)
31.12.2015 19:15 3,2 C 3,1 C 91 % 1026,2 hPa 0,0 mm 0,0 km/h (0 Bft) W-SW 247 1,9 C 0,0 km/h (0 Bft)
31.12.2015 19:20 2,9 C 3,0 C 93 % 1026,2 hPa 0,0 mm 0,0 km/h (0 Bft) S-SW 202 1,9 C 0,0 km/h (0 Bft)
31.12.2015 19:25 2,8 C 2,9 C 93 % 1026,2 hPa 0,0 mm 0,0 km/h (0 Bft) S-SW 202 1,8 C 0,0 km/h (0 Bft)
31.12.2015 19:30 2,8 C 2,8 C 93 % 1026,2 hPa 0,0 mm 0,0 km/h (0 Bft) S-SW 202 1,8 C 0,0 km/h (0 Bft)
31.12.2015 19:35 2,7 C 2,7 C 93 % 1026,3 hPa 0,0 mm 0,0 km/h (0 Bft) S-SW 202 1,7 C 0,0 km/h (0 Bft)
31.12.2015 19:40 2,8 C 2,8 C 87 % 1026,3 hPa 0,0 mm 0,0 km/h (0 Bft) W-SW 247 0,9 C 0,0 km/h (0 Bft)
31.12.2015 19:45 2,8 C 2,8 C 93 % 1026,3 hPa 0,0 mm 0,5 km/h (0 Bft) W 270 1,8 C 0,0 km/h (0 Bft)
31.12.2015 19:50 2,7 C 2,8 C 87 % 1026,3 hPa 0,0 mm 0,5 km/h (0 Bft) S 180 0,8 C 0,0 km/h (0 Bft)
31.12.2015 19:55 2,9 C 3,1 C 87 % 1026,4 hPa 0,7 mm 0,0 km/h (0 Bft) S 180 1,0 C 0,0 km/h (0 Bft)
31.12.2015 20:00 2,9 C 3,0 C 93 % 1026,4 hPa 0,0 mm 0,0 km/h (0 Bft) S 180 1,9 C 0,0 km/h (0 Bft)
31.12.2015 20:05 2,7 C 2,9 C 93 % 1026,4 hPa 0,0 mm 0,0 km/h (0 Bft) S 180 1,7 C 0,0 km/h (0 Bft)
31.12.2015 20:10 2,8 C 2,8 C 93 % 1026,4 hPa 0,0 mm 0,0 km/h (0 Bft) S 180 1,8 C 0,0 km/h (0 Bft)
31.12.2015 20:15 2,6 C 2,8 C 93 % 1026,2 hPa 0,0 mm 0,0 km/h (0 Bft) S 180 1,6 C 0,0 km/h (0 Bft)
31.12.2015 20:20 2,8 C 2,9 C 88 % 1026,2 hPa 0,0 mm 0,0 km/h (0 Bft) SO 135 1,0 C 0,0 km/h (0 Bft)
31.12.2015 20:25 2,9 C 3,0 C 93 % 1026,2 hPa 0,0 mm 0,0 km/h (0 Bft) S-SO 157 1,9 C 0,0 km/h (0 Bft)
31.12.2015 20:30 2,5 C 2,8 C 93 % 1026,2 hPa 0,0 mm 0,5 km/h (0 Bft) W 270 1,5 C 0,0 km/h (0 Bft)
31.12.2015 20:35 2,5 C 2,5 C 93 % 1026,2 hPa 0,0 mm 0,5 km/h (0 Bft) W 270 1,5 C 0,0 km/h (0 Bft)
31.12.2015 20:40 2,5 C 2,5 C 93 % 1026,2 hPa 0,0 mm 0,0 km/h (0 Bft) W 270 1,5 C 0,0 km/h (0 Bft)
31.12.2015 20:45 2,6 C 2,6 C 93 % 1026,2 hPa 0,0 mm 0,0 km/h (0 Bft) W 270 1,6 C 0,0 km/h (0 Bft)
31.12.2015 20:50 2,5 C 2,5 C 93 % 1026,2 hPa 0,0 mm 0,0 km/h (0 Bft) W 270 1,5 C 0,0 km/h (0 Bft)
31.12.2015 20:55 2,6 C 2,6 C 93 % 1026,0 hPa 0,0 mm 0,0 km/h (0 Bft) W 270 1,6 C 0,0 km/h (0 Bft)
31.12.2015 21:00 2,5 C 2,5 C 93 % 1026,0 hPa 0,0 mm 0,0 km/h (0 Bft) W 270 1,5 C 0,0 km/h (0 Bft)
31.12.2015 21:05 2,7 C 2,7 C 93 % 1026,0 hPa 0,0 mm 0,0 km/h (0 Bft) W 270 1,7 C 0,0 km/h (0 Bft)
31.12.2015 21:10 2,6 C 2,6 C 93 % 1026,0 hPa 0,0 mm 0,0 km/h (0 Bft) W-NW 292 1,6 C 0,0 km/h (0 Bft)
31.12.2015 21:15 2,7 C 2,7 C 93 % 1026,3 hPa 0,0 mm 0,0 km/h (0 Bft) W-NW 292 1,7 C 0,0 km/h (0 Bft)
31.12.2015 21:20 2,7 C 2,7 C 93 % 1026,3 hPa 0,0 mm 0,0 km/h (0 Bft) W-NW 292 1,7 C 0,0 km/h (0 Bft)
31.12.2015 21:25 2,6 C 2,6 C 93 % 1026,3 hPa 0,0 mm 0,0 km/h (0 Bft) W-NW 292 1,6 C 0,0 km/h (0 Bft)
31.12.2015 21:30 2,6 C 2,6 C 93 % 1026,3 hPa 0,0 mm 0,0 km/h (0 Bft) W-NW 292 1,6 C 0,0 km/h (0 Bft)
31.12.2015 21:35 2,6 C 2,7 C 93 % 1025,8 hPa 0,0 mm 0,0 km/h (0 Bft) O-SO 112 1,6 C 0,0 km/h (0 Bft)
31.12.2015 21:40 2,9 C 2,9 C 93 % 1025,8 hPa 0,0 mm 0,3 km/h (0 Bft) W 270 1,9 C 5,4 km/h (1 Bft)
31.12.2015 21:45 2,7 C 2,8 C 93 % 1025,8 hPa 0,0 mm 0,5 km/h (0 Bft) W 270 1,7 C 0,0 km/h (0 Bft)
31.12.2015 21:50 2,6 C 2,7 C 93 % 1025,8 hPa 0,0 mm 0,5 km/h (0 Bft) W 270 1,6 C 0,0 km/h (0 Bft)
31.12.2015 21:55 2,6 C 2,6 C 93 % 1025,7 hPa 0,0 mm 0,0 km/h (0 Bft) NW 315 1,6 C 0,0 km/h (0 Bft)
31.12.2015 22:00 2,6 C 2,6 C 94 % 1025,7 hPa 0,0 mm 0,0 km/h (0 Bft) NW 315 1,7 C 0,0 km/h (0 Bft)
31.12.2015 22:05 2,6 C 2,6 C 94 % 1025,7 hPa 0,0 mm 0,0 km/h (0 Bft) NW 315 1,7 C 0,0 km/h (0 Bft)
31.12.2015 22:10 2,6 C 2,6 C 94 % 1025,7 hPa 0,0 mm 0,0 km/h (0 Bft) NW 315 1,7 C 0,0 km/h (0 Bft)
31.12.2015 22:15 2,6 C 2,6 C 94 % 1025,6 hPa 0,0 mm 0,0 km/h (0 Bft) NW 315 1,7 C 0,0 km/h (0 Bft)
31.12.2015 22:20 2,6 C 2,6 C 94 % 1025,6 hPa 0,0 mm 0,0 km/h (0 Bft) NW 315 1,7 C 0,0 km/h (0 Bft)
31.12.2015 22:25 2,6 C 2,6 C 94 % 1025,6 hPa 0,0 mm 0,0 km/h (0 Bft) NW 315 1,7 C 0,0 km/h (0 Bft)
31.12.2015 22:30 2,6 C 2,6 C 94 % 1025,6 hPa 0,0 mm 0,0 km/h (0 Bft) NW 315 1,7 C 0,0 km/h (0 Bft)
31.12.2015 22:35 2,7 C 2,7 C 94 % 1025,5 hPa 0,0 mm 0,0 km/h (0 Bft) NW 315 1,8 C 0,0 km/h (0 Bft)
31.12.2015 22:40 2,5 C 2,5 C 94 % 1025,5 hPa 0,0 mm 0,0 km/h (0 Bft) NW 315 1,6 C 0,0 km/h (0 Bft)
31.12.2015 22:45 2,5 C 2,5 C 94 % 1025,5 hPa 0,0 mm 0,0 km/h (0 Bft) NW 315 1,6 C 0,0 km/h (0 Bft)
31.12.2015 22:50 2,6 C 2,5 C 94 % 1025,5 hPa 0,0 mm 0,0 km/h (0 Bft) NO 45 1,7 C 0,0 km/h (0 Bft)
31.12.2015 22:55 2,6 C 2,6 C 88 % 1025,7 hPa 0,0 mm 0,0 km/h (0 Bft) NO 45 0,8 C 0,0 km/h (0 Bft)
31.12.2015 23:00 2,7 C 2,6 C 94 % 1025,7 hPa 0,0 mm 0,0 km/h (0 Bft) NO 45 1,8 C 0,0 km/h (0 Bft)
31.12.2015 23:05 2,7 C 2,7 C 94 % 1025,7 hPa 0,0 mm 0,0 km/h (0 Bft) NO 45 1,8 C 0,0 km/h (0 Bft)
31.12.2015 23:10 2,8 C 2,7 C 94 % 1025,7 hPa 0,0 mm 0,0 km/h (0 Bft) N-NO 22 1,9 C 0,0 km/h (0 Bft)
31.12.2015 23:15 2,7 C 2,7 C 94 % 1026,3 hPa 0,0 mm 0,0 km/h (0 Bft) N-NO 22 1,8 C 0,0 km/h (0 Bft)
31.12.2015 23:20 2,7 C 2,7 C 94 % 1026,3 hPa 0,0 mm 0,0 km/h (0 Bft) N-NO 22 1,8 C 0,0 km/h (0 Bft)
31.12.2015 23:25 2,8 C 2,8 C 94 % 1026,3 hPa 0,0 mm 0,0 km/h (0 Bft) NW 315 1,9 C 0,0 km/h (0 Bft)
31.12.2015 23:30 2,7 C 2,7 C 94 % 1026,3 hPa 0,0 mm 0,0 km/h (0 Bft) NW 315 1,8 C 0,0 km/h (0 Bft)
31.12.2015 23:35 2,7 C 2,7 C 94 % 1026,5 hPa 0,7 mm 0,0 km/h (0 Bft) NW 315 1,8 C 0,0 km/h (0 Bft)
31.12.2015 23:40 2,8 C 3,0 C 88 % 1026,5 hPa 0,0 mm 0,3 km/h (0 Bft) W-SW 247 1,0 C 0,0 km/h (0 Bft)
31.12.2015 23:45 2,8 C 2,9 C 94 % 1026,5 hPa 0,0 mm 0,3 km/h (0 Bft) S 180 1,9 C 0,0 km/h (0 Bft)
31.12.2015 23:50 2,8 C 2,9 C 94 % 1026,5 hPa 0,0 mm 0,0 km/h (0 Bft) S-SO 157 1,9 C 0,0 km/h (0 Bft)
31.12.2015 23:55 2,8 C 3,0 C 94 % 1026,4 hPa 0,0 mm 0,0 km/h (0 Bft) S-SO 157 1,9 C 0,0 km/h (0 Bft)
_ Min-Zeit 02:35 02:35 13:00 02:30 - 23:55 - - 02:35 23:55
Minimum _ -6,9 C -7,3 C 73 % 1022,2 hPa - 0,0 km/h (0 Bft) - - -8,7 C 0,0 km/h (0 Bft)
_ Max-Zeit 13:20 11:15 23:55 23:50 23:35 11:25 - - 17:50 12:30
Maximum _ 5,3 C 8,2 C 94 % 1026,5 hPa 0,7 mm 10,9 km/h
W-NW (2 Bft)
- - 2,7 C 23,6 km/h
W-NW (4 Bft)
Durchschnitt _ -0,4 C 0,2 C 86 % 1024,6 hPa #5,5 mm 1,0 km/h (0 Bft) W-SW - -2,4 C 1,4 km/h (1 Bft)